Time,TemperatureF,DewpointF,PressureIn,WindDirection,WindDirectionDegrees,WindSpeedMPH,WindSpeedGustMPH,Humidity,HourlyPrecipIn,Conditions,Clouds,dailyrainin,SoftwareType,DateUTC
2014-07-31 00:04:00,65.2,62.5,29.97,WSW,247,0.0,0.0,91,0.00,,,0.00,Wunderground v.1.15,2014-07-31 05:04:00,
2014-07-31 00:10:00,65.0,62.3,29.97,WSW,247,0.0,0.0,91,0.00,,,0.00,Wunderground v.1.15,2014-07-31 05:10:00,
2014-07-31 00:15:00,64.9,62.2,29.97,WSW,247,0.0,0.0,91,0.00,,,0.00,Wunderground v.1.15,2014-07-31 05:15:00,
2014-07-31 00:21:00,64.7,62.3,29.97,WSW,247,0.0,0.0,92,0.00,,,0.00,Wunderground v.1.15,2014-07-31 05:21:00,
2014-07-31 00:26:00,64.4,62.0,29.97,WSW,247,0.0,0.0,92,0.00,,,0.00,Wunderground v.1.15,2014-07-31 05:26:00,
2014-07-31 00:32:00,64.2,61.8,29.97,WSW,247,0.0,0.0,92,0.00,,,0.00,Wunderground v.1.15,2014-07-31 05:32:00,
2014-07-31 00:38:00,64.1,62.0,29.97,WSW,247,0.0,0.0,93,0.00,,,0.00,Wunderground v.1.15,2014-07-31 05:38:00,
2014-07-31 00:44:00,64.0,62.2,29.97,WSW,247,0.0,0.0,94,0.00,,,0.00,Wunderground v.1.15,2014-07-31 05:44:00,
2014-07-31 00:50:00,64.0,62.2,29.96,WSW,247,0.0,0.0,94,0.00,,,0.00,Wunderground v.1.15,2014-07-31 05:50:00,
2014-07-31 00:56:00,64.0,62.2,29.96,WSW,247,0.0,0.0,94,0.00,,,0.00,Wunderground v.1.15,2014-07-31 05:56:00,
2014-07-31 01:02:00,64.0,62.2,29.96,WSW,247,0.0,0.0,94,0.00,,,0.00,Wunderground v.1.15,2014-07-31 06:02:00,
2014-07-31 01:08:00,64.0,62.2,29.96,WSW,247,0.0,0.0,94,0.00,,,0.00,Wunderground v.1.15,2014-07-31 06:08:00,
2014-07-31 01:13:00,64.0,62.2,29.96,WSW,247,0.0,0.0,94,0.00,,,0.00,Wunderground v.1.15,2014-07-31 06:13:00,
2014-07-31 01:18:00,63.9,62.1,29.96,WSW,247,0.0,0.0,94,0.00,,,0.00,Wunderground v.1.15,2014-07-31 06:18:00,
2014-07-31 01:24:00,63.9,62.1,29.96,WSW,247,0.0,0.0,94,0.00,,,0.00,Wunderground v.1.15,2014-07-31 06:24:00,
2014-07-31 01:29:00,63.8,62.0,29.96,WSW,247,0.0,0.0,94,0.00,,,0.00,Wunderground v.1.15,2014-07-31 06:29:00,
2014-07-31 01:35:00,63.7,62.2,29.95,WSW,247,0.0,0.0,95,0.00,,,0.00,Wunderground v.1.15,2014-07-31 06:35:00,
2014-07-31 01:40:00,63.6,62.1,29.95,WSW,247,0.0,0.0,95,0.00,,,0.00,Wunderground v.1.15,2014-07-31 06:40:00,
2014-07-31 01:46:00,63.6,62.1,29.95,WSW,247,0.0,0.0,95,0.00,,,0.00,Wunderground v.1.15,2014-07-31 06:46:00,
2014-07-31 01:51:00,63.4,61.9,29.95,WSW,247,0.0,0.0,95,0.00,,,0.00,Wunderground v.1.15,2014-07-31 06:51:00,
2014-07-31 01:56:00,63.3,61.8,29.95,WSW,247,0.0,0.0,95,0.00,,,0.00,Wunderground v.1.15,2014-07-31 06:56:00,
2014-07-31 02:02:00,63.2,61.7,29.95,WSW,247,0.0,0.0,95,0.00,,,0.00,Wunderground v.1.15,2014-07-31 07:02:00,
2014-07-31 02:07:00,63.1,61.6,29.95,WSW,247,0.0,0.0,95,0.00,,,0.00,Wunderground v.1.15,2014-07-31 07:07:00,
2014-07-31 02:12:00,63.0,61.5,29.95,WSW,247,0.0,0.0,95,0.00,,,0.00,Wunderground v.1.15,2014-07-31 07:12:00,
2014-07-31 02:18:00,62.9,61.4,29.95,WSW,247,0.0,0.0,95,0.00,,,0.00,Wunderground v.1.15,2014-07-31 07:18:00,
2014-07-31 02:23:00,62.8,61.3,29.95,WSW,247,0.0,0.0,95,0.00,,,0.00,Wunderground v.1.15,2014-07-31 07:23:00,
2014-07-31 02:28:00,62.7,61.2,29.95,WSW,247,0.0,0.0,95,0.00,,,0.00,Wunderground v.1.15,2014-07-31 07:28:00,
2014-07-31 02:33:00,62.7,61.2,29.95,WSW,247,0.0,0.0,95,0.00,,,0.00,Wunderground v.1.15,2014-07-31 07:33:00,
2014-07-31 02:38:00,62.6,61.1,29.95,WSW,247,0.0,0.0,95,0.00,,,0.00,Wunderground v.1.15,2014-07-31 07:38:00,
2014-07-31 02:43:00,62.6,61.1,29.95,WSW,247,0.0,0.0,95,0.00,,,0.00,Wunderground v.1.15,2014-07-31 07:43:00,
2014-07-31 02:48:00,62.5,61.3,29.95,WSW,247,0.0,0.0,96,0.00,,,0.00,Wunderground v.1.15,2014-07-31 07:48:00,
2014-07-31 02:53:00,62.4,61.2,29.95,WSW,247,0.0,0.0,96,0.00,,,0.00,Wunderground v.1.15,2014-07-31 07:53:00,
2014-07-31 02:58:00,62.3,61.1,29.95,WSW,247,0.0,0.0,96,0.00,,,0.00,Wunderground v.1.15,2014-07-31 07:58:00,
2014-07-31 03:03:00,62.3,61.1,29.95,WSW,247,0.0,0.0,96,0.00,,,0.00,Wunderground v.1.15,2014-07-31 08:03:00,
2014-07-31 03:08:00,62.2,60.8,29.95,WSW,247,0.0,0.0,95,0.00,,,0.00,Wunderground v.1.15,2014-07-31 08:08:00,
2014-07-31 03:13:00,62.2,60.8,29.95,WSW,247,0.0,0.0,95,0.00,,,0.00,Wunderground v.1.15,2014-07-31 08:13:00,
2014-07-31 03:18:00,62.1,60.7,29.95,WSW,247,0.0,0.0,95,0.00,,,0.00,Wunderground v.1.15,2014-07-31 08:18:00,
2014-07-31 03:23:00,62.0,60.6,29.95,WSW,247,0.0,0.0,95,0.00,,,0.00,Wunderground v.1.15,2014-07-31 08:23:00,
2014-07-31 03:28:00,61.9,60.5,29.94,WSW,247,0.0,0.0,95,0.00,,,0.00,Wunderground v.1.15,2014-07-31 08:28:00,
2014-07-31 03:34:00,61.8,60.4,29.94,WSW,247,0.0,0.0,95,0.00,,,0.00,Wunderground v.1.15,2014-07-31 08:34:00,
2014-07-31 03:39:00,61.7,60.3,29.95,WSW,247,0.0,0.0,95,0.00,,,0.00,Wunderground v.1.15,2014-07-31 08:39:00,
2014-07-31 03:44:00,61.6,60.2,29.94,WSW,247,0.0,0.0,95,0.00,,,0.00,Wunderground v.1.15,2014-07-31 08:44:00,
2014-07-31 03:49:00,61.5,60.1,29.95,WSW,247,0.0,0.0,95,0.00,,,0.00,Wunderground v.1.15,2014-07-31 08:49:00,
2014-07-31 03:54:00,61.4,60.2,29.95,WSW,247,0.0,0.0,96,0.00,,,0.00,Wunderground v.1.15,2014-07-31 08:54:00,
2014-07-31 03:59:00,61.3,60.2,29.95,WSW,247,0.0,0.0,96,0.00,,,0.00,Wunderground v.1.15,2014-07-31 08:59:00,
2014-07-31 04:04:00,61.3,60.2,29.95,WSW,247,0.0,0.0,96,0.00,,,0.00,Wunderground v.1.15,2014-07-31 09:04:00,
2014-07-31 04:09:00,61.2,60.1,29.95,WSW,247,0.0,0.0,96,0.00,,,0.00,Wunderground v.1.15,2014-07-31 09:09:00,
2014-07-31 04:14:00,61.2,60.1,29.95,WSW,247,0.0,0.0,96,0.00,,,0.00,Wunderground v.1.15,2014-07-31 09:14:00,
2014-07-31 04:19:00,61.2,60.1,29.95,WSW,247,0.0,0.0,96,0.00,,,0.00,Wunderground v.1.15,2014-07-31 09:19:00,
2014-07-31 04:24:00,61.2,60.3,29.95,WSW,247,0.0,0.0,97,0.00,,,0.00,Wunderground v.1.15,2014-07-31 09:24:00,
2014-07-31 04:29:00,61.1,60.0,29.95,WSW,247,0.0,0.0,96,0.00,,,0.00,Wunderground v.1.15,2014-07-31 09:29:00,
2014-07-31 04:34:00,61.1,60.0,29.95,WSW,247,0.0,0.0,96,0.00,,,0.00,Wunderground v.1.15,2014-07-31 09:34:00,
2014-07-31 04:39:00,61.1,60.0,29.95,WSW,247,0.0,0.0,96,0.00,,,0.00,Wunderground v.1.15,2014-07-31 09:39:00,
2014-07-31 04:45:00,61.0,59.9,29.95,WSW,247,0.0,0.0,96,0.00,,,0.00,Wunderground v.1.15,2014-07-31 09:45:00,
2014-07-31 04:50:00,61.0,59.9,29.95,WSW,247,0.0,0.0,96,0.00,,,0.00,Wunderground v.1.15,2014-07-31 09:50:00,
2014-07-31 04:55:00,60.8,59.7,29.95,WSW,247,0.0,0.0,96,0.00,,,0.00,Wunderground v.1.15,2014-07-31 09:55:00,
2014-07-31 05:00:00,60.8,59.7,29.95,WSW,247,0.0,0.0,96,0.00,,,0.00,Wunderground v.1.15,2014-07-31 10:00:00,
2014-07-31 05:05:00,60.7,59.8,29.95,WSW,247,0.0,0.0,97,0.00,,,0.00,Wunderground v.1.15,2014-07-31 10:05:00,
2014-07-31 05:10:00,60.6,59.7,29.95,WSW,247,0.0,0.0,97,0.00,,,0.00,Wunderground v.1.15,2014-07-31 10:10:00,
2014-07-31 05:15:00,60.5,59.4,29.95,WSW,247,0.0,0.0,96,0.00,,,0.00,Wunderground v.1.15,2014-07-31 10:15:00,
2014-07-31 05:20:00,60.5,59.4,29.95,WSW,247,0.0,0.0,96,0.00,,,0.00,Wunderground v.1.15,2014-07-31 10:20:00,
2014-07-31 05:25:00,60.4,59.3,29.95,WSW,247,0.0,0.0,96,0.00,,,0.00,Wunderground v.1.15,2014-07-31 10:25:00,
2014-07-31 05:30:00,60.4,59.5,29.96,WSW,247,0.0,0.0,97,0.00,,,0.00,Wunderground v.1.15,2014-07-31 10:30:00,
2014-07-31 05:35:00,60.3,59.4,29.96,WSW,247,0.0,0.0,97,0.00,,,0.00,Wunderground v.1.15,2014-07-31 10:35:00,
2014-07-31 05:40:00,60.3,59.4,29.96,WSW,247,0.0,0.0,97,0.00,,,0.00,Wunderground v.1.15,2014-07-31 10:40:00,
2014-07-31 05:45:00,60.2,59.3,29.96,WSW,247,0.0,0.0,97,0.00,,,0.00,Wunderground v.1.15,2014-07-31 10:45:00,
2014-07-31 05:50:00,60.2,59.3,29.96,WSW,247,0.0,0.0,97,0.00,,,0.00,Wunderground v.1.15,2014-07-31 10:50:00,
2014-07-31 05:55:00,60.1,59.2,29.96,WSW,247,0.0,0.0,97,0.00,,,0.00,Wunderground v.1.15,2014-07-31 10:55:00,
2014-07-31 06:00:00,60.0,59.1,29.97,WSW,247,0.0,0.0,97,0.00,,,0.00,Wunderground v.1.15,2014-07-31 11:00:00,
2014-07-31 06:05:00,60.0,59.1,29.97,WSW,247,0.0,0.0,97,0.00,,,0.00,Wunderground v.1.15,2014-07-31 11:05:00,
2014-07-31 06:10:00,59.9,59.0,29.97,WSW,247,0.0,0.0,97,0.00,,,0.00,Wunderground v.1.15,2014-07-31 11:10:00,
2014-07-31 06:15:00,60.0,59.1,29.97,WSW,247,0.0,0.0,97,0.00,,,0.00,Wunderground v.1.15,2014-07-31 11:15:00,
2014-07-31 06:20:00,60.0,59.1,29.97,WSW,247,0.0,0.0,97,0.00,,,0.00,Wunderground v.1.15,2014-07-31 11:20:00,
2014-07-31 06:25:00,60.0,59.1,29.97,WSW,247,0.0,0.0,97,0.00,,,0.00,Wunderground v.1.15,2014-07-31 11:25:00,
2014-07-31 06:30:00,60.1,59.2,29.97,WSW,247,0.0,0.0,97,0.00,,,0.00,Wunderground v.1.15,2014-07-31 11:30:00,
2014-07-31 06:35:00,60.1,59.2,29.97,WSW,247,0.0,0.0,97,0.00,,,0.00,Wunderground v.1.15,2014-07-31 11:35:00,
2014-07-31 06:40:00,60.2,59.6,29.97,WSW,247,0.0,0.0,98,0.00,,,0.00,Wunderground v.1.15,2014-07-31 11:40:00,
2014-07-31 06:45:00,60.3,59.7,29.97,WSW,247,0.0,0.0,98,0.00,,,0.00,Wunderground v.1.15,2014-07-31 11:45:00,
2014-07-31 06:50:00,60.4,59.8,29.97,WSW,247,0.0,0.0,98,0.00,,,0.00,Wunderground v.1.15,2014-07-31 11:50:00,
2014-07-31 06:55:00,60.6,60.0,29.97,WSW,247,0.0,0.0,98,0.00,,,0.00,Wunderground v.1.15,2014-07-31 11:55:00,
2014-07-31 07:00:00,60.8,60.2,29.97,WSW,247,0.0,0.0,98,0.00,,,0.00,Wunderground v.1.15,2014-07-31 12:00:00,
2014-07-31 07:06:00,61.0,60.4,29.98,WSW,247,0.0,0.0,98,0.00,,,0.00,Wunderground v.1.15,2014-07-31 12:06:00,
2014-07-31 07:11:00,61.2,60.6,29.98,WSW,247,0.0,0.0,98,0.00,,,0.00,Wunderground v.1.15,2014-07-31 12:11:00,
2014-07-31 07:16:00,61.4,60.8,29.98,WSW,247,0.0,0.0,98,0.00,,,0.00,Wunderground v.1.15,2014-07-31 12:16:00,
2014-07-31 07:21:00,61.8,61.2,29.98,WSW,247,0.0,0.0,98,0.00,,,0.00,Wunderground v.1.15,2014-07-31 12:21:00,
2014-07-31 07:26:00,62.1,61.5,29.98,WSW,247,0.0,0.0,98,0.00,,,0.00,Wunderground v.1.15,2014-07-31 12:26:00,
2014-07-31 07:31:00,62.4,61.8,29.98,WSW,247,0.0,0.0,98,0.00,,,0.00,Wunderground v.1.15,2014-07-31 12:31:00,
2014-07-31 07:36:00,62.7,62.1,29.98,WSW,247,0.0,0.0,98,0.00,,,0.00,Wunderground v.1.15,2014-07-31 12:36:00,
2014-07-31 07:41:00,63.1,62.5,29.98,WSW,247,0.0,0.0,98,0.00,,,0.00,Wunderground v.1.15,2014-07-31 12:41:00,
2014-07-31 07:46:00,63.5,63.2,29.99,WSW,247,0.0,0.0,99,0.00,,,0.00,Wunderground v.1.15,2014-07-31 12:46:00,
2014-07-31 07:51:00,64.0,63.4,29.99,WSW,247,0.0,0.0,98,0.00,,,0.00,Wunderground v.1.15,2014-07-31 12:51:00,
2014-07-31 07:56:00,64.6,64.3,29.98,WSW,247,0.0,0.0,99,0.00,,,0.00,Wunderground v.1.15,2014-07-31 12:56:00,
2014-07-31 08:01:00,65.1,64.8,29.99,WSW,247,0.0,0.0,99,0.00,,,0.00,Wunderground v.1.15,2014-07-31 13:01:00,
2014-07-31 08:06:00,65.8,65.5,29.98,WSW,247,0.0,0.0,99,0.00,,,0.00,Wunderground v.1.15,2014-07-31 13:06:00,
2014-07-31 08:11:00,66.3,66.0,29.98,WSW,247,0.0,0.0,99,0.00,,,0.00,Wunderground v.1.15,2014-07-31 13:11:00,
2014-07-31 08:16:00,66.9,66.6,29.99,WSW,247,0.0,0.0,99,0.00,,,0.00,Wunderground v.1.15,2014-07-31 13:16:00,
2014-07-31 08:21:00,67.7,67.4,29.99,WSW,247,0.0,0.0,99,0.00,,,0.00,Wunderground v.1.15,2014-07-31 13:21:00,
2014-07-31 08:26:00,68.0,67.7,29.99,WSW,247,0.0,0.0,99,0.00,,,0.00,Wunderground v.1.15,2014-07-31 13:26:00,
2014-07-31 08:31:00,68.3,67.7,29.99,WSW,247,0.0,0.0,98,0.00,,,0.00,Wunderground v.1.15,2014-07-31 13:31:00,
2014-07-31 08:36:00,69.0,68.1,29.99,WSW,247,0.0,0.0,97,0.00,,,0.00,Wunderground v.1.15,2014-07-31 13:36:00,
2014-07-31 08:41:00,69.8,67.1,29.99,WSW,247,0.0,0.0,91,0.00,,,0.00,Wunderground v.1.15,2014-07-31 13:41:00,
2014-07-31 08:46:00,71.2,68.1,29.99,WSW,247,0.0,0.0,90,0.00,,,0.00,Wunderground v.1.15,2014-07-31 13:46:00,
2014-07-31 08:51:00,72.4,66.9,29.99,WSW,247,0.0,0.0,83,0.00,,,0.00,Wunderground v.1.15,2014-07-31 13:51:00,
2014-07-31 08:56:00,73.6,65.9,30.00,WSW,247,0.0,0.0,77,0.00,,,0.00,Wunderground v.1.15,2014-07-31 13:56:00,
2014-07-31 09:01:00,74.8,66.3,30.00,WSW,247,0.0,0.0,75,0.00,,,0.00,Wunderground v.1.15,2014-07-31 14:01:00,
2014-07-31 09:06:00,75.9,67.4,30.00,WSW,247,0.0,0.0,75,0.00,,,0.00,Wunderground v.1.15,2014-07-31 14:06:00,
2014-07-31 09:11:00,76.9,66.8,30.00,WSW,247,0.0,0.0,71,0.00,,,0.00,Wunderground v.1.15,2014-07-31 14:11:00,
2014-07-31 09:16:00,77.7,66.3,30.00,WSW,247,0.0,0.0,68,0.00,,,0.00,Wunderground v.1.15,2014-07-31 14:16:00,
2014-07-31 09:22:00,78.5,65.8,30.00,WSW,247,0.0,0.0,65,0.00,,,0.00,Wunderground v.1.15,2014-07-31 14:22:00,
2014-07-31 09:27:00,79.2,66.0,30.00,WSW,247,0.0,0.0,64,0.00,,,0.00,Wunderground v.1.15,2014-07-31 14:27:00,
2014-07-31 09:32:00,79.8,67.0,30.00,WSW,247,0.0,0.0,65,0.00,,,0.00,Wunderground v.1.15,2014-07-31 14:32:00,
2014-07-31 09:37:00,80.5,67.6,30.00,WSW,247,0.0,0.0,65,0.00,,,0.00,Wunderground v.1.15,2014-07-31 14:37:00,
2014-07-31 09:42:00,81.1,66.8,30.00,WSW,247,0.0,0.0,62,0.00,,,0.00,Wunderground v.1.15,2014-07-31 14:42:00,
2014-07-31 09:47:00,81.6,65.4,30.00,WSW,247,0.0,0.0,58,0.00,,,0.00,Wunderground v.1.15,2014-07-31 14:47:00,
2014-07-31 09:52:00,82.1,65.4,30.00,WSW,247,0.0,0.0,57,0.00,,,0.00,Wunderground v.1.15,2014-07-31 14:52:00,
2014-07-31 09:57:00,82.6,68.7,30.00,WSW,247,0.0,0.0,63,0.00,,,0.00,Wunderground v.1.15,2014-07-31 14:57:00,
2014-07-31 10:02:00,83.1,66.3,30.00,WSW,247,0.0,0.0,57,0.00,,,0.00,Wunderground v.1.15,2014-07-31 15:02:00,
2014-07-31 10:07:00,83.5,67.7,29.99,WSW,247,0.0,0.0,59,0.00,,,0.00,Wunderground v.1.15,2014-07-31 15:07:00,
2014-07-31 10:12:00,83.8,65.9,29.99,WSW,247,0.0,0.0,55,0.00,,,0.00,Wunderground v.1.15,2014-07-31 15:12:00,
2014-07-31 10:17:00,83.9,65.5,29.99,WSW,246,0.0,0.0,54,0.00,,,0.00,Wunderground v.1.15,2014-07-31 15:17:00,
2014-07-31 10:22:00,84.1,65.1,30.00,WSW,246,0.0,0.0,53,0.00,,,0.00,Wunderground v.1.15,2014-07-31 15:22:00,
2014-07-31 10:27:00,84.1,65.1,30.00,WSW,246,0.0,0.0,53,0.00,,,0.00,Wunderground v.1.15,2014-07-31 15:27:00,
2014-07-31 10:32:00,84.4,65.4,30.00,WSW,246,0.0,0.0,53,0.00,,,0.00,Wunderground v.1.15,2014-07-31 15:32:00,
2014-07-31 10:37:00,84.7,64.0,30.00,WSW,244,0.0,0.0,50,0.00,,,0.00,Wunderground v.1.15,2014-07-31 15:37:00,
2014-07-31 10:42:00,84.9,68.5,29.99,WSW,244,0.0,0.0,58,0.00,,,0.00,Wunderground v.1.15,2014-07-31 15:42:00,
2014-07-31 10:47:00,85.3,66.2,29.99,WSW,244,0.0,0.0,53,0.00,,,0.00,Wunderground v.1.15,2014-07-31 15:47:00,
2014-07-31 10:52:00,85.4,63.5,29.99,WSW,244,0.0,0.0,48,0.00,,,0.00,Wunderground v.1.15,2014-07-31 15:52:00,
2014-07-31 10:57:00,85.7,64.3,29.99,WSW,244,0.0,0.0,49,0.00,,,0.00,Wunderground v.1.15,2014-07-31 15:57:00,
2014-07-31 11:03:00,85.9,63.3,29.99,WSW,244,0.0,0.0,47,0.00,,,0.00,Wunderground v.1.15,2014-07-31 16:03:00,
2014-07-31 11:08:00,86.1,62.9,29.99,WSW,248,0.0,0.0,46,0.00,,,0.00,Wunderground v.1.15,2014-07-31 16:08:00,
2014-07-31 11:13:00,85.4,64.1,30.00,West,269,0.0,0.0,49,0.00,,,0.00,Wunderground v.1.15,2014-07-31 16:13:00,
2014-07-31 11:18:00,85.4,63.5,29.99,West,268,0.0,1.0,48,0.00,,,0.00,Wunderground v.1.15,2014-07-31 16:18:00,
2014-07-31 11:23:00,85.4,64.6,30.00,West,268,0.0,3.0,50,0.00,,,0.00,Wunderground v.1.15,2014-07-31 16:23:00,
2014-07-31 11:28:00,85.4,64.6,29.99,West,269,0.0,3.0,50,0.00,,,0.00,Wunderground v.1.15,2014-07-31 16:28:00,
2014-07-31 11:33:00,85.0,64.3,29.99,WNW,290,0.0,1.0,50,0.00,,,0.00,Wunderground v.1.15,2014-07-31 16:33:00,
2014-07-31 11:38:00,84.9,63.6,29.99,WNW,298,2.0,5.0,49,0.00,,,0.00,Wunderground v.1.15,2014-07-31 16:38:00,
2014-07-31 11:43:00,84.9,63.6,29.99,WNW,291,0.0,0.0,49,0.00,,,0.00,Wunderground v.1.15,2014-07-31 16:43:00,
2014-07-31 11:48:00,85.1,63.8,29.98,WNW,293,0.0,3.0,49,0.00,,,0.00,Wunderground v.1.15,2014-07-31 16:48:00,
2014-07-31 11:53:00,85.3,64.0,29.99,WNW,299,0.0,5.0,49,0.00,,,0.00,Wunderground v.1.15,2014-07-31 16:53:00,
2014-07-31 11:58:00,85.7,64.3,29.99,WNW,302,0.0,5.0,49,0.00,,,0.00,Wunderground v.1.15,2014-07-31 16:58:00,
2014-07-31 12:03:00,86.2,64.2,29.98,WNW,302,1.0,1.0,48,0.00,,,0.00,Wunderground v.1.15,2014-07-31 17:03:00,
2014-07-31 12:08:00,86.3,63.7,29.98,WNW,294,0.0,3.0,47,0.00,,,0.00,Wunderground v.1.15,2014-07-31 17:08:00,
2014-07-31 12:13:00,86.8,63.5,29.98,WNW,286,0.0,0.0,46,0.00,,,0.00,Wunderground v.1.15,2014-07-31 17:13:00,
2014-07-31 12:18:00,87.2,63.9,29.98,WNW,286,0.0,0.0,46,0.00,,,0.00,Wunderground v.1.15,2014-07-31 17:18:00,
2014-07-31 12:23:00,87.0,61.8,29.98,NW,306,2.0,5.0,43,0.00,,,0.00,Wunderground v.1.15,2014-07-31 17:23:00,
2014-07-31 12:28:00,86.5,62.0,29.98,WNW,293,0.0,6.0,44,0.00,,,0.00,Wunderground v.1.15,2014-07-31 17:28:00,
2014-07-31 12:33:00,86.5,62.0,29.98,WNW,295,0.0,1.0,44,0.00,,,0.00,Wunderground v.1.15,2014-07-31 17:33:00,
2014-07-31 12:38:00,86.8,65.9,29.98,WNW,296,0.0,1.0,50,0.00,,,0.00,Wunderground v.1.15,2014-07-31 17:38:00,
2014-07-31 12:43:00,87.3,64.0,29.98,WNW,294,0.0,6.0,46,0.00,,,0.00,Wunderground v.1.15,2014-07-31 17:43:00,
2014-07-31 12:48:00,87.4,64.1,29.98,WNW,293,0.0,6.0,46,0.00,,,0.00,Wunderground v.1.15,2014-07-31 17:48:00,
2014-07-31 12:53:00,87.5,65.4,29.98,WNW,296,0.0,3.0,48,0.00,,,0.00,Wunderground v.1.15,2014-07-31 17:53:00,
2014-07-31 12:58:00,87.6,63.0,29.98,NW,309,0.0,3.0,44,0.00,,,0.00,Wunderground v.1.15,2014-07-31 17:58:00,
2014-07-31 13:04:00,87.3,63.4,29.98,WNW,297,4.0,6.0,45,0.00,,,0.00,Wunderground v.1.15,2014-07-31 18:04:00,
2014-07-31 13:09:00,87.1,62.5,29.97,WNW,294,5.0,6.0,44,0.00,,,0.00,Wunderground v.1.15,2014-07-31 18:09:00,
2014-07-31 13:14:00,86.8,65.3,29.97,WNW,294,4.0,4.0,49,0.00,,,0.00,Wunderground v.1.15,2014-07-31 18:14:00,
2014-07-31 13:19:00,86.7,62.8,29.98,WNW,291,4.0,5.0,45,0.00,,,0.00,Wunderground v.1.15,2014-07-31 18:19:00,
2014-07-31 13:24:00,86.7,62.2,29.98,WNW,296,4.0,8.0,44,0.00,,,0.00,Wunderground v.1.15,2014-07-31 18:24:00,